{"data":{"norad_id":56146,"intl_designator":"2023-046BG","name":"STARLINK-5111","alt_names":[],"object_type":"PAYLOAD","status":"ACTIVE","operator":null,"country":"US","launch_date":"2023-03-29","launch_site_code":"AFETR","launch_vehicle":null,"mission":null,"orbit_class":"UNKNOWN","rcs_meters":null,"size_class":null,"mass_kg":null,"dimensions":null,"purposes":["comms"],"wikipedia_slug":null,"has_3d_model":false,"image_url":null,"decayed_at":null,"tle_current":{"epoch":"2026-09-19T23:27:31.037184Z","epoch_age_seconds":153806,"freshness":"FRESH","line1":"1 56146U 23046BG  26262.97744256  .00000301  00000+0  20468-4 0  9996","line2":"2 56146  43.0016 129.7734 0001606 245.5589 114.5095 15.27576746191918","mean_motion":15.27576746,"eccentricity":0.0001606,"inclination_deg":43.0016,"raan_deg":129.7734,"arg_perigee_deg":245.5589,"mean_anomaly_deg":114.5095,"bstar":2.0468e-5,"rev_number":19191,"period_min":94.266949517965,"perigee_km":481.95693165171,"apogee_km":484.16074775543,"semimajor_km":6861.1958397036,"source":"CELESTRAK","updated_at":"2026-09-21T09:00:33.390934Z"}}}